| time (UTC) | temp F | wind direction | speed MPH | gust MPH | rain 1hr in | rain 24hr in | rain mn in | humidity % | barometer mb |
| 20260502211512 | 62 | 252 | 15.0 | 18.0 | 0.00 | 0.00 | 0.00 | 93 | 1013.5 |
| 20260502210010 | 62 | 258 | 13.0 | 16.0 | 0.00 | 0.00 | 0.00 | 93 | 1013.6 |
| 20260502204508 | 62 | 256 | 12.0 | 15.0 | 0.00 | 0.00 | 0.00 | 93 | 1013.7 |
| 20260502203005 | 62 | 252 | 11.0 | 17.0 | 0.00 | 0.00 | 0.00 | 93 | 1013.6 |
| 20260502201502 | 62 | 263 | 10.0 | 14.0 | 0.00 | 0.00 | 0.00 | 94 | 1013.7 |
| 20260502200002 | 62 | 281 | 11.0 | 15.0 | 0.00 | 0.00 | 0.00 | 95 | 1013.7 |
| 20260502194601 | 62 | 253 | 11.0 | 15.0 | 0.00 | 0.00 | 0.00 | 95 | 1014.0 |
| 20260502193056 | 62 | 260 | 11.0 | 15.0 | 0.00 | 0.00 | 0.00 | 95 | 1014.0 |
| 20260502191558 | 61 | 265 | 12.0 | 16.0 | 0.00 | 0.00 | 0.00 | 95 | 1014.1 |
| 20260502190052 | 61 | 248 | 14.0 | 16.0 | 0.00 | 0.00 | 0.00 | 95 | 1014.6 |
| 20260502184548 | 61 | 242 | 12.0 | 14.0 | 0.00 | 0.00 | 0.00 | 96 | 1014.6 |
| 20260502183048 | 61 | 261 | 10.0 | 13.0 | 0.00 | 0.00 | 0.00 | 96 | 1014.5 |
| 20260502181605 | 61 | 258 | 12.0 | 14.0 | 0.00 | 0.00 | 0.00 | 96 | 1014.8 |
| 20260502163035 | 62 | 290 | 2.0 | 3.0 | 0.00 | 0.00 | 0.00 | 93 | 1015.4 |
| 20260502161537 | 62 | 290 | 0.0 | 1.0 | 0.00 | 0.00 | 0.00 | 93 | 1015.3 |
| 20260502151534 | 62 | 111 | 0.0 | 0.0 | 0.00 | 0.00 | 0.00 | 93 | 1015.1 |
| 20260502123019 | 62 | 295 | 0.0 | 3.0 | 0.00 | 0.00 | 0.00 | 92 | 1014.2 |
| 20260502121519 | 62 | 287 | 3.0 | 5.0 | 0.00 | 0.00 | 0.00 | 92 | 1014.1 |
| 20260502114518 | 62 | 360 | 1.0 | 3.0 | 0.00 | 0.00 | 0.00 | 92 | 1013.9 |
| 20260502113016 | 62 | 336 | 1.0 | 4.0 | 0.00 | 0.00 | 0.00 | 92 | 1013.7 |
| 20260502111516 | 62 | 317 | 1.0 | 3.0 | 0.00 | 0.00 | 0.00 | 92 | 1013.8 |
| 20260502110015 | 62 | 303 | 2.0 | 4.0 | 0.00 | 0.00 | 0.00 | 92 | 1013.8 |
| 20260502104516 | 62 | 257 | 0.0 | 2.0 | 0.00 | 0.00 | 0.00 | 92 | 1013.7 |
| 20260502103019 | 62 | 259 | 2.0 | 3.0 | 0.00 | 0.00 | 0.00 | 92 | 1013.7 |
| 20260502101512 | 62 | 242 | 4.0 | 7.0 | 0.00 | 0.00 | 0.00 | 92 | 1013.8 |
| 20260502091508 | 62 | 275 | 4.0 | 7.0 | 0.00 | 0.00 | 0.00 | 92 | 1013.7 |
| 20260502080108 | 62 | 237 | 5.0 | 8.0 | 0.00 | 0.00 | 0.00 | 91 | 1014.3 |
| 20260502070052 | 62 | 254 | 3.0 | 5.0 | 0.00 | 0.00 | 0.00 | 91 | 1014.4 |
| 20260502064559 | 62 | 276 | 4.0 | 9.0 | 0.00 | 0.00 | 0.00 | 91 | 1014.4 |
| 20260502063050 | 62 | 263 | 3.0 | 4.0 | 0.00 | 0.00 | 0.00 | 91 | 1014.4 |
| 20260502061550 | 63 | 312 | 3.0 | 5.0 | 0.00 | 0.00 | 0.00 | 90 | 1014.5 |
| 20260502060049 | 63 | 245 | 4.0 | 7.0 | 0.00 | 0.00 | 0.00 | 90 | 1014.6 |
| 20260502054556 | 63 | 284 | 3.0 | 7.0 | 0.00 | 0.00 | 0.00 | 90 | 1014.6 |
| 20260502053048 | 63 | 254 | 6.0 | 8.0 | 0.00 | 0.00 | 0.00 | 90 | 1014.6 |
| 20260502051548 | 63 | 313 | 1.0 | 3.0 | 0.00 | 0.00 | 0.00 | 90 | 1014.7 |
| 20260502050047 | 63 | 165 | 0.0 | 2.0 | 0.00 | 0.00 | 0.00 | 90 | 1014.7 |
| 20260502044546 | 63 | 165 | 1.0 | 3.0 | 0.00 | 0.00 | 0.00 | 90 | 1014.5 |
| 20260502043050 | 62 | 162 | 1.0 | 3.0 | 0.00 | 0.00 | 0.00 | 90 | 1014.4 |
| 20260502041545 | 62 | 215 | 3.0 | 6.0 | 0.00 | 0.00 | 0.00 | 90 | 1014.4 |
| 20260502040054 | 62 | 237 | 5.0 | 8.0 | 0.00 | 0.00 | 0.00 | 90 | 1014.3 |
| 20260502034544 | 63 | 248 | 6.0 | 8.0 | 0.00 | 0.00 | 0.00 | 90 | 1014.1 |
| 20260502033043 | 62 | 267 | 2.0 | 6.0 | 0.00 | 0.00 | 0.00 | 89 | 1013.9 |
| 20260502031548 | 63 | 317 | 4.0 | 8.0 | 0.00 | 0.00 | 0.00 | 89 | 1013.7 |
| 20260502030042 | 63 | 298 | 5.0 | 9.0 | 0.00 | 0.00 | 0.00 | 90 | 1013.7 |
| 20260502024544 | 63 | 251 | 3.0 | 5.0 | 0.00 | 0.00 | 0.00 | 90 | 1013.7 |
| 20260502023049 | 63 | 254 | 3.0 | 10.0 | 0.00 | 0.00 | 0.00 | 89 | 1013.5 |
| 20260502021544 | 63 | 236 | 5.0 | 8.0 | 0.00 | 0.00 | 0.00 | 89 | 1013.1 |
| 20260502020053 | 63 | 238 | 5.0 | 8.0 | 0.00 | 0.00 | 0.00 | 89 | 1013.3 |
| 20260502014549 | 63 | 226 | 5.0 | 8.0 | 0.00 | 0.00 | 0.00 | 89 | 1013.4 |
| 20260502013038 | 63 | 216 | 6.0 | 9.0 | 0.00 | 0.00 | 0.00 | 89 | 1013.2 |
| 20260502011539 | 63 | 213 | 6.0 | 9.0 | 0.00 | 0.00 | 0.00 | 89 | 1013.0 |
| 20260502010037 | 63 | 219 | 5.0 | 10.0 | 0.00 | 0.00 | 0.00 | 90 | 1013.0 |
| 20260502004537 | 63 | 229 | 8.0 | 11.0 | 0.00 | 0.00 | 0.00 | 89 | 1013.1 |
| 20260502003034 | 63 | 238 | 8.0 | 11.0 | 0.00 | 0.00 | 0.00 | 88 | 1012.8 |
| 20260502001554 | 63 | 236 | 9.0 | 10.0 | 0.00 | 0.00 | 0.00 | 88 | 1012.7 |
| 20260502000029 | 63 | 243 | 7.0 | 12.0 | 0.00 | 0.00 | 0.00 | 88 | 1012.8 |
| 20260501234528 | 63 | 236 | 9.0 | 10.0 | 0.00 | 0.00 | 0.00 | 88 | 1012.6 |
| 20260501233027 | 63 | 232 | 8.0 | 11.0 | 0.00 | 0.00 | 0.00 | 88 | 1012.8 |
| 20260501231525 | 63 | 235 | 8.0 | 10.0 | 0.00 | 0.00 | 0.00 | 87 | 1012.7 |
| 20260501230026 | 63 | 229 | 7.0 | 11.0 | 0.00 | 0.00 | 0.00 | 88 | 1012.9 |
| 20260501224520 | 63 | 227 | 8.0 | 10.0 | 0.00 | 0.00 | 0.00 | 88 | 1013.1 |
| 20260501223020 | 63 | 223 | 9.0 | 12.0 | 0.00 | 0.00 | 0.00 | 88 | 1013.2 |
| 20260501221513 | 63 | 238 | 8.0 | 11.0 | 0.00 | 0.00 | 0.00 | 88 | 1013.5 |
| 20260501220011 | 63 | 221 | 7.0 | 10.0 | 0.00 | 0.00 | 0.00 | 88 | 1013.6 |
| 20260501214510 | 63 | 229 | 8.0 | 14.0 | 0.00 | 0.00 | 0.00 | 88 | 1013.8 |
| 20260501213007 | 63 | 227 | 9.0 | 11.0 | 0.00 | 0.00 | 0.00 | 87 | 1014.1 |